Hourly Data Report for October 25, 2014

All times are specified in Local Standard Time (LST). Add 1 hour to adjust for Daylight Saving Time where and when it is observed.

MONCTON INTL A
NEW BRUNSWICK

46°06'44.000" N
64°40'43.000" W
70.70 m
8103201
71705
YQM

Download Data

Hourly Data (October 2014)
Hourly Data Report for October 25, 2014
Temp Definition
°C
Dew Point Temp Definition
°C
Rel Hum Definition
%
Wind Dir Definition
10's deg

Wind Spd Definition
km/h
Visibility Definition
km
Stn Press Definition
kPa
Hmdx Definition


Wind Chill Definition


Weather Definition


TIME
00:00 Legend Double Dagger 8.1 7.5 96 34 21 2.0 99.01     Drizzle,Fog
01:00 Legend Double Dagger 8.0 7.4 96 34 26 2.0 99.01     Drizzle,Fog
02:00 Legend Double Dagger 7.9 7.2 95 33 23 2.0 98.99     Drizzle,Fog
03:00 Legend Double Dagger 7.8 7.1 95 33 22 3.2 98.98     Drizzle,Fog
04:00 Legend Double Dagger 7.7 7.0 95 33 18 2.0 99.03     Drizzle,Fog,Blowing Sand
05:00 Legend Double Dagger 7.7 7.0 95 32 21 2.0 99.02     Drizzle,Fog
06:00 Legend Double Dagger 7.7 7.1 96 33 21 3.2 99.03     Drizzle,Fog
07:00 Legend Double Dagger 7.8 7.2 96 34 15 3.2 99.08     Drizzle,Fog
08:00 Legend Double Dagger 8.0 7.3 95 36 24 2.4 99.10     Drizzle,Fog
09:00 Legend Double Dagger 8.0 7.3 95 34 18 2.4 99.11     Drizzle,Fog
10:00 Legend Double Dagger 8.2 7.5 95 35 18 2.4 99.14     Drizzle,Fog
11:00 Legend Double Dagger 8.4 7.7 95 36 19 2.4 99.11     Drizzle,Fog
12:00 Legend Double Dagger 8.4 7.5 94 34 22 3.2 99.10     Drizzle,Fog
13:00 Legend Double Dagger 7.9 6.7 92 35 24 4.0 99.10     Drizzle,Fog
14:00 Legend Double Dagger 7.8 6.8 93 35 26 9.7 99.07     Drizzle,Fog
15:00 Legend Double Dagger 7.7 6.3 91 35 23 12.9 99.08     LegendNANA
16:00 Legend Double Dagger 7.5 6.3 92 33 20 9.7 99.11     Drizzle,Fog
17:00 Legend Double Dagger 6.8 6.1 95 32 17 9.7 99.12     Drizzle,Fog
18:00 Legend Double Dagger 6.2 5.5 95 30 15 9.7 99.18     Drizzle,Fog
19:00 Legend Double Dagger 5.7 5.0 95 30 16 24.1 99.16     Drizzle
20:00 Legend Double Dagger 5.4 4.5 94 31 12 24.1 99.13     Cloudy
21:00 Legend Double Dagger 5.3 4.4 94 27 13 24.1 99.16     LegendNANA
22:00 Legend Double Dagger 5.2 4.3 94 26 12 24.1 99.14     LegendNANA
23:00 Legend Double Dagger 5.1 4.2 94 26 12 24.1 99.09     Cloudy

Notes on Data Quality.

Legend

  • E = Estimated
  • M = Missing
  • NA = Not Available
  • ‡ = Partner data that is not subject to review by the National Climate Archives
Date modified: